Location: Lesignano de� Bagni
(44.6500°N, 10.3000°E)
Time: 11:19:26
(UTC+00:00)

ERS-2 - Pass Details

Date: 03 March 2021
Orbit: 492 x 496 km, 98.6° (Epoch: 17 April)

Event Time Altitude Azimuth Distance (km) Brightness Sun altitude
Rises 18:22:52 0° 11° (N) 2,594 5.7 -13.9°
Reaches altitude 10° 18:24:58 10° 9° (N) 1,706 4.8 -14.2°
Maximum altitude 18:28:36 67° 287° (WNW) 542 2.5 -14.9°
Drops below altitude 10° 18:32:13 10° 204° (SSW) 1,693 5.0 -15.5°
Sets 18:34:17 0° 202° (SSW) 2,571 5.9 -15.9°
